Wind_Speed
7 9 12 16 14 8 1 3 7 3 3 7 6 4 4 4 5 3 3 4 3 2 3 4 6 7 9 10 11 12 12 11 11 10 11 12 13 13 14 15 15 15 16 15 14 14 13 13 12
7 8 10 13 14 10 3 7 6 5 7 5 5 4 2 3 4 4 2 2 2 1 1 0 2 4 7 8 9 9 10 9 8 8 10 11 11 12 13 14 14 15 15 15 13 12 12 12 13
8 7 6 13 4 2 4 9 7 5 4 6 1 5 6 4 5 5 5 4 5 5 5 4 3 1 2 3 4 6 7 6 7 7 7 8 9 11 12 13 13 13 13 13 12 10 11 10 10
11 9 10 15 5 6 4 8 12 6 4 7 6 9 7 7 7 6 6 7 6 6 6 7 7 3 2 3 3 4 3 3 5 5 4 6 7 9 10 12 12 12 11 10 9 9 8 7 6
15 9 8 0 6 4 5 5 16 13 9 9 10 13 9 8 8 9 10 11 10 10 9 8 8 5 5 5 5 5 5 3 3 5 3 4 6 7 8 9 8 8 8 8 7 6 5 4 5
14 12 8 3 7 3 5 3 14 11 11 13 15 16 12 11 12 12 11 13 12 10 10 10 9 8 7 7 7 7 6 2 2 3 2 2 4 4 6 6 6 6 5 5 3 3 4 4 4
16 11 8 6 9 8 7 6 6 11 17 21 24 16 14 11 12 14 15 15 14 13 13 13 12 11 9 8 8 8 7 3 6 4 2 2 2 3 4 5 4 3 2 2 2 3 3 3 3
17 15 12 11 4 15 19 13 15 20 28 11 19 13 13 12 10 10 13 19 18 17 16 15 14 14 12 11 10 10 8 7 7 7 5 4 3 3 3 2 1 1 1 3 2 1 2 2 3
16 15 10 9 7 29 23 19 19 28 16 17 13 12 11 10 10 12 13 14 17 18 17 16 16 16 15 14 13 12 10 10 11 9 6 5 3 2 2 1 1 2 1 2 1 2 5 5 4
15 17 12 16 21 36 25 24 25 27 15 14 14 12 11 15 17 16 17 13 12 14 15 16 17 18 18 17 16 15 13 12 11 9 7 6 5 3 3 3 4 4 3 4 4 4 4 5 5
17 20 14 22 41 39 17 26 34 18 17 17 17 14 14 19 18 18 19 21 17 14 16 17 18 18 19 18 17 16 14 12 10 9 9 7 7 6 7 7 8 7 7 7 7 7 6 7 6
19 24 18 35 38 30 26 28 29 22 23 18 17 14 19 19 16 16 19 18 16 13 15 16 16 18 16 14 14 14 13 12 12 12 10 11 11 11 10 11 11 10 10 10 10 10 10 10 11
20 27 33 36 30 31 31 31 32 28 27 22 21 18 18 16 13 13 16 16 14 13 12 15 14 14 13 13 13 12 12 13 15 15 14 14 14 14 14 15 15 14 13 14 15 14 14 15 14
21 26 36 36 24 30 32 32 32 31 27 26 25 23 21 19 12 12 15 15 14 13 10 13 12 12 10 10 12 13 14 14 16 17 17 17 17 17 18 18 19 18 18 18 19 21 20 20 20
22 28 31 35 20 32 31 34 35 34 31 29 28 25 23 16 15 12 14 18 19 16 15 12 11 11 9 9 10 11 12 13 16 17 18 20 20 20 20 21 21 22 21 22 24 25 27 26 26
23 25 29 36 31 34 34 40 39 37 35 30 29 27 23 21 18 16 15 16 20 20 20 18 14 13 12 13 16 17 18 18 18 18 18 18 18 18 18 19 21 22 24 26 27 29 30 30 31
25 25 27 32 40 44 40 45 38 37 35 34 31 29 27 21 23 20 17 20 22 21 22 22 22 19 17 17 19 21 21 22 20 20 20 19 22 21 19 20 20 23 24 25 28 29 31 33 35
21 23 17 30 39 46 48 42 35 38 36 35 32 30 26 22 21 24 23 20 24 27 26 26 29 28 26 26 26 27 26 26 27 24 22 24 24 24 23 25 28 32 29 30 32 31 33 32 31
19 21 26 42 36 39 49 45 47 44 41 38 35 33 30 28 23 25 25 26 25 27 34 32 32 34 33 35 35 37 34 33 33 33 33 30 31 32 31 30 31 33 35 36 36 37 38 37 43
33 29 32 37 30 38 36 46 51 50 48 46 44 42 39 35 32 32 31 30 29 31 29 33 36 42 42 44 40 45 42 36 38 42 33 30 35 44 39 35 36 41 41 44 43 41 42 45 45
28 30 34 31 30 33 34 39 46 50 51 51 49 45 41 39 37 36 34 35 35 35 36 36 36 39 43 45 45 45 42 45 43 44 42 40 37 39 41 38 40 43 45 48 48 51 54 45 33
30 30 28 37 28 29 30 28 38 42 48 50 51 49 46 45 43 42 43 44 41 39 39 38 39 41 44 45 45 48 48 48 47 47 47 47 49 45 46 45 44 46 50 53 56 57 56 48 45
28 21 28 38 28 23 33 33 37 39 38 37 40 45 47 48 48 47 45 41 40 40 42 41 40 42 43 45 46 45 47 48 50 48 48 49 50 54 54 52 52 54 55 55 54 58 53 45 48
26 25 22 32 30 33 27 31 34 40 38 33 31 31 33 33 37 39 41 42 41 39 41 42 43 46 48 49 49 51 51 52 52 53 55 55 57 59 61 61 61 63 61 56 56 57 53 49 48
28 28 23 27 29 33 23 31 31 48 40 36 34 34 36 39 41 41 42 43 44 47 48 50 51 52 53 55 56 57 57 59 60 61 62 63 63 64 65 62 59 58 58 57 56 57 59 57 55
28 25 25 20 17 21 26 32 43 42 38 38 39 40 40 42 45 46 48 49 48 47 46 47 48 49 51 53 54 56 57 58 58 59 58 57 56 56 57 58 58 58 58 57 56 54 54 54 55
24 27 28 31 33 27 27 36 44 44 38 36 36 39 40 41 43 44 44 44 44 45 46 48 49 50 51 52 52 53 54 54 54 54 55 56 58 58 59 59 59 60 61 62 62 60 59 57 55
30 23 24 28 33 33 30 37 41 40 43 40 38 39 40 42 44 45 47 48 49 50 51 52 51 52 52 53 55 56 56 57 58 59 59 60 61 62 63 64 66 67 67 67 67 66 65 63 61
23 31 37 33 30 29 33 43 49 45 44 42 40 42 42 43 45 48 50 52 53 53 51 49 54 54 54 54 54 54 54 56 58 59 60 61 62 64 65 67 68 70 70 71 71 72 71 70 69
32 34 30 35 29 34 37 47 50 50 43 40 40 40 41 47 50 54 55 53 53 54 55 54 52 51 51 53 54 55 56 58 59 61 63 64 65 65 66 66 67 68 69 70 71 72 73 74 74
Wind_Direction
158 137 104 91 80 42 333 242 102 124 197 162 160 159 148 161 167 270 144 155 128 76 30 27 24 14 12 9 6 11 15 16 28 39 43 40 53 61 67 71 76 75 71 69 71 70 66 58 48
182 149 118 84 42 359 330 156 193 162 184 174 158 144 202 163 165 165 172 166 183 196 293 29 9 18 12 7 3 10 17 16 39 57 44 42 54 64 64 66 67 71 73 69 70 73 74 68 66
198 163 127 81 312 234 44 212 158 179 171 173 337 161 140 140 176 201 217 230 240 237 243 232 244 294 348 351 4 9 18 21 42 67 50 56 60 68 69 71 71 72 73 71 75 77 80 71 75
197 174 123 62 256 268 257 224 215 198 203 173 168 237 192 186 176 187 208 218 229 233 231 235 241 249 284 311 326 339 10 50 95 105 74 60 71 75 80 82 72 69 73 77 79 86 80 78 72
198 177 107 166 281 284 304 304 189 194 209 186 201 217 219 226 221 231 233 235 235 236 239 240 244 247 275 288 299 319 339 21 116 119 74 74 78 87 89 91 75 70 75 87 97 92 83 76 71
194 183 125 197 261 303 276 257 173 185 214 215 240 226 231 239 237 239 245 244 246 250 252 253 250 255 272 283 302 317 322 342 144 169 137 106 87 93 102 99 90 79 78 95 90 97 117 108 96
190 178 175 236 243 271 230 162 160 196 214 205 224 228 247 258 259 259 251 247 249 252 251 256 257 261 274 289 304 308 291 231 197 203 198 171 127 111 105 100 110 101 80 55 3 2 90 108 111
198 193 195 201 195 235 216 206 208 217 211 287 239 252 264 271 281 281 275 284 275 268 266 257 258 257 260 265 266 271 263 224 207 218 221 196 165 147 123 105 124 148 27 2 10 42 27 52 57
202 194 186 205 200 246 240 221 230 239 258 248 263 262 270 287 295 297 299 283 275 272 267 260 259 255 251 249 246 248 242 224 213 218 217 216 203 178 172 194 249 262 328 305 257 305 327 330 350
208 189 161 210 209 237 218 224 236 238 228 249 264 266 286 305 303 303 301 288 291 288 285 276 270 264 260 256 251 253 241 230 221 229 227 224 238 242 262 279 273 255 253 250 238 245 283 310 336
208 188 185 228 225 229 207 221 232 242 238 252 266 262 282 306 302 299 298 293 286 292 294 292 286 277 274 272 269 266 257 244 239 250 258 254 259 270 275 292 287 270 263 255 265 267 275 283 293
208 204 186 232 229 224 220 231 238 237 241 247 250 259 295 303 303 305 307 292 283 275 274 282 285 284 279 284 285 289 283 264 255 255 259 265 267 274 281 282 281 278 273 270 267 271 276 280 289
212 210 207 238 241 224 220 227 235 239 241 246 254 270 281 301 301 329 313 288 272 273 275 276 283 291 295 291 287 286 282 269 266 265 264 264 268 274 280 283 285 288 285 281 280 278 277 277 281
216 219 214 247 247 222 224 229 233 236 230 244 253 265 274 289 306 324 330 307 279 268 284 289 285 288 289 296 300 294 291 286 281 281 282 283 284 283 284 286 289 292 294 288 284 283 281 280 279
229 237 242 259 257 232 227 234 229 231 235 245 247 264 273 282 302 309 323 317 308 299 296 279 293 296 296 302 306 305 303 298 289 283 284 285 288 289 290 290 291 293 294 293 290 285 283 282 281
234 234 241 249 251 246 234 238 235 235 240 245 248 262 266 280 277 286 299 301 288 288 293 295 292 297 298 299 303 300 300 300 297 291 287 286 289 290 289 290 291 294 294 294 291 289 289 289 288
232 236 235 251 243 244 234 252 237 242 243 246 251 250 259 269 268 271 282 277 274 281 278 279 281 279 276 283 286 285 287 284 283 284 291 303 304 300 302 299 296 300 297 295 291 290 290 291 294
236 229 241 259 235 244 240 258 249 245 246 248 250 254 262 257 250 260 272 283 278 276 276 275 270 274 272 270 272 275 274 274 277 273 274 279 279 282 286 286 288 295 295 296 297 297 292 288 288
225 238 228 243 260 246 251 254 254 251 251 252 251 254 259 264 260 254 273 277 271 276 271 279 274 276 275 263 260 260 254 251 255 263 265 265 271 271 269 278 286 290 293 290 291 289 287 293 298
232 221 221 255 260 254 258 254 253 253 257 256 256 257 259 263 265 270 273 268 274 272 273 269 274 269 264 265 270 281 290 288 296 286 292 283 289 281 275 278 287 289 289 291 290 288 289 291 295
244 242 247 260 253 254 255 258 257 256 256 258 258 258 260 259 262 266 262 269 268 271 270 270 273 265 266 273 280 286 289 290 292 294 292 291 287 291 282 289 291 290 288 287 287 291 293 294 306
245 249 246 254 256 262 258 261 252 255 256 257 258 259 261 264 266 265 266 274 272 266 266 267 269 272 272 273 276 273 274 278 281 286 289 287 286 287 284 288 288 289 288 285 283 283 288 302 297
240 240 245 256 252 252 260 253 264 259 262 263 261 260 262 262 262 268 272 272 271 269 268 263 266 268 269 273 273 272 272 272 279 276 276 279 281 283 285 285 285 287 286 286 283 281 286 287 285
239 230 241 253 254 249 246 262 263 269 266 264 265 267 264 260 259 260 263 267 268 268 268 266 266 267 268 269 269 270 272 274 275 276 276 278 279 280 281 281 281 283 284 282 280 282 283 282 282
243 241 235 247 247 255 243 263 248 260 265 269 270 269 266 266 267 269 272 273 274 276 278 278 275 273 272 271 271 272 273 274 276 277 277 278 279 278 278 280 279 277 276 276 275 275 277 276 276
252 236 227 247 265 274 257 247 260 270 279 277 269 269 269 270 273 275 277 281 283 282 280 279 278 278 277 277 276 276 276 277 277 277 278 279 278 278 278 278 277 276 277 277 276 274 273 274 274
240 243 245 236 237 260 249 249 260 267 274 278 276 270 270 272 273 274 278 280 281 281 281 281 281 282 284 284 283 283 284 283 282 282 282 281 281 281 280 279 278 277 276 276 275 274 273 272 271
246 229 236 246 250 243 246 277 259 262 267 271 275 276 275 274 273 275 278 280 281 282 282 283 284 283 283 284 284 286 285 284 283 283 283 283 284 284 283 283 283 282 281 280 279 278 276 273 271
260 249 239 234 231 253 248 246 263 270 263 268 269 266 268 272 275 275 277 280 282 283 282 281 284 285 284 284 285 284 284 283 284 285 285 284 283 283 282 282 281 280 279 278 277 276 275 275 274
245 242 231 235 253 252 249 266 267 275 276 277 274 273 272 273 276 278 280 281 282 281 281 283 283 284 284 284 284 285 285 287 287 287 287 286 285 283 281 280 278 276 276 275 274 273 273 273 271
Height
5911 5912 5916 5916 5919 5921 5920 5920 5919 5918 5917 5915 5915 5913 5914 5913 5912 5905 5909 5910 5911 5910 5910 5910 5909 5907 5905 5905 5903 5902 5900 5898 5896 5895 5894 5894 5893 5892 5891 5889 5889 5888 5887 5886 5885 5884 5884 5883 5883
5911 5913 5917 5918 5921 5920 5921 5921 5919 5917 5916 5916 5915 5914 5912 5912 5911 5911 5911 5910 5910 5909 5908 5907 5907 5905 5904 5903 5902 5901 5900 5898 5896 5895 5895 5894 5894 5893 5892 5890 5889 5889 5888 5887 5887 5886 5885 5885 5885
5911 5914 5918 5920 5928 5924 5922 5919 5922 5917 5917 5916 5917 5913 5911 5910 5909 5909 5909 5908 5907 5906 5905 5904 5903 5903 5902 5900 5900 5899 5898 5896 5896 5895 5894 5893 5893 5893 5892 5891 5890 5889 5889 5889 5888 5888 5887 5887 5887
5910 5914 5920 5922 5926 5919 5920 5918 5918 5919 5918 5916 5916 5912 5910 5909 5908 5907 5907 5906 5906 5905 5904 5903 5903 5902 5901 5900 5899 5898 5895 5894 5893 5893 5893 5894 5893 5893 5893 5892 5892 5891 5890 5891 5890 5890 5889 5888 5887
5909 5913 5919 5927 5925 5920 5918 5915 5914 5918 5917 5915 5913 5909 5909 5909 5908 5907 5906 5905 5905 5904 5904 5904 5903 5902 5901 5900 5899 5898 5898 5896 5895 5894 5895 5894 5894 5893 5893 5892 5892 5892 5892 5892 5892 5891 5891 5890 5889
5907 5912 5920 5927 5924 5920 5917 5915 5915 5916 5915 5913 5908 5908 5908 5907 5907 5906 5906 5905 5905 5904 5904 5903 5902 5902 5901 5900 5900 5900 5899 5899 5897 5896 5895 5895 5894 5894 5893 5893 5893 5893 5893 5893 5892 5891 5891 5890 5890
5906 5912 5920 5925 5923 5919 5915 5914 5914 5913 5903 5906 5905 5907 5907 5907 5908 5907 5906 5904 5903 5903 5903 5902 5902 5901 5901 5901 5901 5900 5899 5898 5897 5897 5896 5895 5894 5894 5894 5894 5893 5893 5893 5893 5892 5892 5891 5890 5889
5903 5907 5916 5922 5925 5913 5907 5912 5913 5907 5901 5899 5904 5906 5907 5908 5908 5908 5908 5907 5905 5903 5902 5902 5901 5901 5900 5899 5899 5899 5898 5898 5897 5897 5896 5895 5894 5894 5894 5894 5895 5894 5894 5894 5893 5893 5892 5891 5890
5901 5905 5914 5923 5921 5907 5909 5911 5910 5903 5908 5907 5905 5906 5907 5908 5908 5907 5906 5905 5904 5903 5902 5901 5900 5899 5898 5898 5896 5896 5897 5896 5896 5896 5896 5896 5895 5895 5894 5895 5895 5895 5895 5895 5894 5893 5893 5893 5891
5898 5903 5914 5919 5915 5896 5904 5906 5905 5904 5906 5906 5906 5907 5907 5907 5907 5906 5905 5905 5904 5903 5901 5900 5899 5899 5898 5897 5896 5897 5896 5896 5896 5896 5897 5896 5896 5895 5896 5896 5896 5895 5894 5894 5893 5892 5892 5892 5891
5897 5900 5912 5907 5896 5893 5902 5901 5898 5903 5904 5904 5906 5907 5907 5908 5906 5904 5904 5903 5902 5901 5901 5900 5899 5900 5899 5898 5898 5897 5897 5898 5898 5898 5898 5897 5897 5896 5895 5896 5896 5895 5894 5893 5893 5892 5892 5892 5891
5894 5897 5904 5892 5889 5895 5900 5898 5897 5901 5902 5904 5905 5906 5906 5905 5904 5903 5902 5901 5900 5900 5899 5899 5899 5899 5898 5898 5898 5898 5897 5897 5897 5897 5897 5897 5897 5896 5895 5895 5894 5894 5894 5893 5892 5892 5891 5891 5890
5890 5892 5893 5884 5887 5891 5895 5896 5896 5898 5900 5901 5903 5903 5904 5903 5903 5901 5900 5899 5899 5899 5898 5898 5898 5898 5897 5897 5896 5896 5897 5896 5896 5896 5895 5895 5895 5895 5894 5894 5893 5893 5893 5892 5891 5890 5889 5888 5888
5887 5888 5888 5877 5886 5888 5891 5893 5894 5895 5897 5898 5900 5901 5901 5901 5900 5899 5897 5897 5898 5898 5897 5897 5896 5895 5895 5895 5896 5895 5896 5895 5896 5895 5895 5894 5894 5893 5893 5892 5892 5891 5891 5890 5889 5888 5887 5886 5885
5882 5883 5882 5877 5884 5886 5888 5889 5889 5892 5894 5896 5897 5899 5900 5900 5898 5898 5897 5895 5895 5895 5896 5896 5894 5893 5893 5893 5894 5894 5893 5894 5893 5892 5891 5891 5891 5891 5891 5890 5889 5889 5889 5888 5887 5885 5884 5883 5881
5878 5879 5879 5876 5879 5882 5887 5880 5884 5888 5890 5893 5895 5896 5897 5897 5897 5897 5896 5895 5894 5893 5893 5893 5893 5892 5892 5892 5891 5891 5891 5890 5889 5888 5888 5887 5887 5886 5886 5886 5885 5885 5885 5884 5883 5882 5880 5879 5878
5873 5875 5876 5873 5874 5875 5882 5870 5883 5884 5887 5889 5891 5893 5894 5895 5894 5895 5895 5894 5893 5893 5892 5891 5891 5891 5891 5890 5889 5888 5888 5886 5885 5884 5884 5886 5885 5884 5883 5882 5881 5880 5879 5879 5878 5877 5876 5874 5873
5872 5873 5878 5870 5869 5869 5871 5868 5879 5880 5882 5884 5886 5887 5889 5891 5891 5892 5892 5891 5891 5891 5890 5890 5889 5888 5887 5886 5885 5884 5884 5882 5881 5880 5879 5878 5877 5877 5877 5876 5875 5875 5873 5872 5872 5871 5870 5869 5867
5873 5874 5873 5860 5862 5867 5863 5867 5869 5873 5875 5878 5880 5881 5883 5885 5886 5887 5888 5888 5888 5887 5886 5885 5885 5884 5883 5881 5878 5875 5876 5874 5873 5873 5873 5872 5871 5870 5868 5870 5868 5867 5867 5865 5864 5863 5862 5862 5861
5860 5863 5861 5857 5861 5862 5861 5860 5862 5865 5867 5870 5872 5874 5876 5878 5879 5881 5881 5881 5882 5881 5881 5881 5880 5878 5876 5872 5872 5871 5867 5869 5870 5869 5868 5869 5868 5865 5864 5862 5862 5860 5860 5857 5855 5855 5856 5855 5850
5855 5857 5854 5855 5856 5854 5856 5854 5856 5857 5859 5860 5863 5866 5868 5870 5872 5873 5873 5874 5874 5874 5873 5873 5873 5872 5871 5869 5867 5864 5862 5859 5860 5859 5859 5858 5858 5858 5857 5856 5853 5852 5850 5850 5847 5844 5847 5844 5843
5849 5851 5849 5846 5851 5850 5851 5851 5847 5850 5850 5853 5856 5858 5860 5862 5863 5864 5864 5864 5864 5864 5864 5864 5863 5863 5862 5861 5860 5859 5857 5856 5853 5851 5850 5848 5847 5847 5846 5845 5844 5844 5840 5839 5838 5835 5836 5834 5836
5845 5847 5844 5839 5843 5845 5840 5844 5838 5840 5843 5845 5847 5850 5852 5854 5854 5854 5854 5854 5854 5854 5854 5854 5853 5853 5852 5851 5849 5848 5847 5846 5845 5845 5843 5841 5840 5836 5835 5835 5834 5832 5831 5828 5825 5826 5827 5827 5826
5837 5839 5838 5835 5837 5836 5842 5838 5832 5832 5833 5838 5841 5842 5843 5844 5845 5845 5846 5845 5845 5844 5843 5843 5842 5841 5840 5840 5839 5838 5837 5836 5834 5834 5833 5832 5829 5826 5823 5822 5821 5819 5817 5816 5814 5813 5815 5816 5814
5830 5831 5833 5831 5830 5829 5838 5837 5833 5820 5828 5833 5835 5836 5837 5837 5836 5836 5835 5834 5834 5833 5833 5832 5831 5830 5829 5828 5827 5825 5824 5823 5821 5820 5818 5816 5814 5812 5809 5807 5804 5803 5802 5801 5800 5800 5799 5800 5801
5822 5826 5828 5829 5831 5831 5830 5825 5816 5821 5824 5826 5826 5827 5828 5827 5827 5826 5824 5823 5823 5821 5820 5819 5818 5817 5815 5813 5812 5811 5809 5807 5806 5804 5802 5800 5798 5796 5793 5792 5790 5788 5787 5786 5785 5785 5786 5785 5784
5818 5817 5823 5821 5822 5824 5818 5816 5814 5815 5816 5817 5817 5818 5818 5817 5816 5815 5815 5814 5812 5811 5809 5807 5805 5804 5802 5800 5797 5795 5794 5792 5790 5788 5786 5784 5781 5780 5777 5775 5774 5772 5771 5769 5768 5768 5769 5770 5770
5808 5814 5815 5816 5815 5816 5818 5806 5799 5804 5806 5807 5807 5808 5808 5808 5807 5806 5805 5804 5802 5799 5797 5795 5793 5791 5789 5787 5784 5781 5779 5776 5774 5772 5770 5767 5765 5762 5760 5757 5755 5753 5751 5749 5749 5748 5748 5750 5751
5802 5801 5803 5807 5808 5805 5806 5804 5795 5792 5796 5798 5797 5797 5797 5797 5796 5795 5794 5793 5791 5788 5786 5784 5781 5779 5776 5774 5772 5769 5766 5763 5760 5757 5754 5752 5749 5746 5743 5740 5737 5734 5732 5729 5729 5728 5727 5727 5728
5793 5793 5795 5795 5801 5800 5800 5789 5784 5783 5785 5785 5786 5786 5786 5786 5785 5784 5782 5780 5778 5776 5773 5771 5769 5766 5764 5761 5759 5756 5753 5749 5745 5742 5737 5734 5730 5726 5723 5721 5717 5714 5712 5709 5707 5707 5706 5705 5706